Weather History for Rionegro, Colombia

Change the Weather History Date:

Tuesday, January 8, 2013

  Actual Average Record
Temperature  
Mean Temperature 60 °F -  
Max Temperature 73 °F 68 °F 77 °F (1999)
Min Temperature 48 °F 53 °F 48 °F (2013)
Degree Days  
Heating Degree Days 4    
Growing Degree Days 10 (Base 50)    
Moisture  
Dew Point 51 °F    
Average Humidity 72    
Maximum Humidity 100    
Minimum Humidity 30    
Precipitation  
Precipitation 0.00 in - - ()
Sea Level Pressure  
Sea Level Pressure 30.21 in    
Wind  
Wind Speed 4 mph ()    
Max Wind Speed 21 mph    
Max Gust Speed -    
Visibility 5.7 miles    
Events Fog    
Averages and records for this station are not official NWS values.
T = Trace of Precipitation, MM = Missing Value Source: Averaged Metar Reports

Daily Weather History Graph

Daily Weather History Graph

Search for Another Location

Airport:

Trip Planner

Search our weather history database for the weather conditions in past years. The results will help you decide how hot, cold, wet, or windy it might be!

Date:

Astronomy

Jan. 08, 2013 Rise Set
Actual Time 6:14 AM COT 6:02 PM COT
Civil Twilight 5:52 AM COT 6:24 PM COT
Nautical Twilight 5:26 AM COT 6:50 PM COT
Astronomical Twilight 5:00 AM COT 7:16 PM COT
Moon 2:49 AM COT (1/8) 3:00 PM COT (1/8)
Length of Visible Light 12h 32m
Length of Day
11h 47m
Waning Crescent, 14% of the Moon is Illuminated
Jan 8
Waning Crescent
Jan 11
New
Jan 18
First Quarter
Jan 26
Full
Feb 3
Last Quarter

Hourly Weather History & Observations

Time (COT) Temp. Dew Point Humidity Pressure Visibility Wind Dir Wind Speed Gust Speed Precip Events Conditions
12:00 AM 59.0 °F 57.2 °F 94% 30.23 in 4.3 mi Variable 2.3 mph - N/A   Mostly Cloudy
1:00 AM 58 °F 56 °F 90%  in 4 mi Calm Calm - -   Haze
1:00 AM 57.2 °F 55.4 °F 94% 30.21 in 4.3 mi Calm Calm - N/A   Mostly Cloudy
2:00 AM 55.4 °F 53.6 °F 94% 30.20 in 4.3 mi Calm Calm - N/A Fog Fog
3:00 AM 53.6 °F 53.6 °F 100% 30.19 in 3.7 mi Calm Calm - N/A Fog Fog
3:15 AM 51.8 °F 51.8 °F 100% 30.18 in 0.2 mi Calm Calm - N/A Fog Fog
4:00 AM 51 °F 51 °F 99%  in 0 mi Calm Calm - - Fog Partial Fog
4:00 AM - - N/A% - 0.5 mi Calm Calm - N/A   Unknown
4:30 AM - - N/A% - 0.2 mi Calm Calm - N/A   Unknown
5:00 AM - - N/A% - 0.2 mi Calm Calm - N/A   Unknown
5:10 AM 50.0 °F 48.2 °F 94% 30.19 in 1.9 mi Calm Calm - N/A Fog Patches of Fog
5:30 AM 48.2 °F 48.2 °F 100% 30.19 in 2.5 mi West 4.6 mph - N/A Fog Patches of Fog
6:00 AM 48.2 °F 46.4 °F 93% 30.20 in 2.5 mi Calm Calm - N/A Fog Patches of Fog
7:00 AM 49 °F 48 °F 96%  in 11 mi West 4.5 mph - - Fog Patches of Fog
7:00 AM 50.0 °F 48.2 °F 94% 30.23 in 6.2 mi West 3.5 mph - N/A Fog Shallow Fog
8:00 AM 59.0 °F 53.6 °F 82% 30.25 in 6.2 mi Variable 2.3 mph - N/A   Partly Cloudy
9:00 AM 64.4 °F 51.8 °F 64% 30.25 in 6.2 mi East 8.1 mph - N/A   Partly Cloudy
10:00 AM 67 °F 47 °F 38%  in 12 mi East 11.2 mph - -   Haze
10:00 AM 68.0 °F 46.4 °F 46% 30.25 in 6.2 mi East 11.5 mph - N/A   Partly Cloudy
11:00 AM 66.2 °F 55.4 °F 68% 30.29 in 6.2 mi East 6.9 mph - N/A   Scattered Clouds
12:00 PM 69.8 °F 48.2 °F 46% 30.22 in 6.2 mi SE 18.4 mph - N/A   Scattered Clouds
1:00 PM 71 °F 46 °F 30%  in 12 mi ESE 15.7 mph - -   Haze
1:00 PM 71.6 °F 46.4 °F 41% 30.19 in 6.2 mi ESE 16.1 mph - N/A   Partly Cloudy
2:00 PM 71.6 °F 46.4 °F 41% 30.16 in 6.2 mi ESE 20.7 mph - N/A   Partly Cloudy
3:00 PM 73.4 °F 46.4 °F 38% 30.15 in 6.2 mi East 18.4 mph - N/A   Partly Cloudy
4:00 PM 72 °F 47 °F 30%  in 12 mi ESE 11.2 mph - -   Haze
4:00 PM 71.6 °F 48.2 °F 43% 30.14 in 6.2 mi ESE 11.5 mph - N/A   Partly Cloudy
5:00 PM 71.6 °F 50.0 °F 46% 30.16 in 6.2 mi East 11.5 mph - N/A   Partly Cloudy
6:00 PM 66.2 °F 53.6 °F 64% 30.18 in 6.2 mi East 6.9 mph - N/A   Partly Cloudy
7:00 PM 64 °F 53 °F 58%  in 12 mi SSW 2.2 mph - -   Haze
7:00 PM 64.4 °F 53.6 °F 68% 30.18 in 6.2 mi Variable 2.3 mph - N/A   Partly Cloudy
8:00 PM 60.8 °F 53.6 °F 77% 30.19 in 6.2 mi Variable 2.3 mph - N/A   Partly Cloudy
9:00 PM 57.2 °F 51.8 °F 82% 30.22 in 6.2 mi Variable 2.3 mph - N/A   Partly Cloudy
10:00 PM 55 °F 51 °F 83%  in 12 mi NE 2.2 mph - -   Haze
10:00 PM 55.4 °F 51.8 °F 88% 30.24 in 6.2 mi Variable 2.3 mph - N/A   Partly Cloudy
11:00 PM 53.6 °F 51.8 °F 94% 30.25 in 6.2 mi Calm Calm - N/A   Partly Cloudy